Voltar ao catálogo

FENGYUN 1C DEB

AtivoSSO
NORAD 31049·DEBRIS·🇨🇳 China

Lançado May 10, 1999 de Taiyuan Satellite Launch Center

Loading…

Próximas Passagens (próximas 24 horas)

TLE

AtualizadoSource: Space-Track

Época: Sep 14, 2026, 05:49 UTC

1 31049U 99025BET 26257.24250259  .00000526  00000-0  35200-3 0  9999
2 31049  98.8032 264.4934 0052320  79.6893 281.0168 14.04498232649827

Acompanhe FENGYUN 1C DEB em tempo real com AllMySat

Download on the App Store